Tracking 20942 objects as of 4-Jul-2020
HD Live streaming from Space Station
objects crossing your sky now

COSMOS 1348

Track COSMOS 1348 now!
COSMOS 1348 is classified as:


NORAD ID: 13124
Int'l Code: 1982-029A
Perigee: 7,636.5 km
Apogee: 32,771.3 km
Inclination: 71.8 °
Period: 718.6 minutes
Semi major axis: 26574 km
RCS: 16.1516 m2 (large)
Launch date: April 7, 1982
Source: Commonwealth of Independent States (former USSR) (CIS)
Launch site: PLESETSK MISSILE AND SPACE COMPLEX (PKMTR)
aabbcc
Your satellite tracking list
Your tracking list is empty




NASA's NSSDC Master Catalog

Two Line Element Set (TLE):
1 13124U 82029A   20186.39549312  .00000117  00000-0  00000+0 0  9993
2 13124  71.8259 226.6908 4729061  34.8509   8.8574  2.00399314279838
Source of the keplerian elements: AFSPC